Time,TemperatureF,DewpointF,PressureIn,WindDirection,WindDirectionDegrees,WindSpeedMPH,WindSpeedGustMPH,Humidity,HourlyPrecipIn,Conditions,Clouds,dailyrainin,SoftwareType,DateUTC
2013-09-06 00:13:00,69.8,65.0,30.13,East,79,2.0,3.0,85,0.00,,,0.00,weatherlink.com 1.10,2013-09-06 05:13:00,
2013-09-06 00:28:00,69.7,65.0,30.13,East,79,0.0,1.0,85,0.00,,,0.00,weatherlink.com 1.10,2013-09-06 05:28:00,
2013-09-06 00:43:00,69.1,65.0,30.13,East,79,0.0,1.0,85,0.00,,,0.00,weatherlink.com 1.10,2013-09-06 05:43:00,
2013-09-06 00:59:00,67.9,64.0,30.13,East,79,2.0,2.0,88,0.00,,,0.00,weatherlink.com 1.10,2013-09-06 05:59:00,
2013-09-06 01:14:00,68.3,65.0,30.14,ENE,72,3.0,3.0,89,0.00,,,0.00,weatherlink.com 1.10,2013-09-06 06:14:00,
2013-09-06 01:29:00,68.1,65.0,30.14,East,83,3.0,3.0,89,0.00,,,0.00,weatherlink.com 1.10,2013-09-06 06:29:00,
2013-09-06 01:44:00,67.6,65.0,30.13,ENE,72,2.0,2.0,90,0.00,,,0.00,weatherlink.com 1.10,2013-09-06 06:44:00,
2013-09-06 01:59:00,67.1,65.0,30.13,ENE,72,0.0,2.0,91,0.00,,,0.00,weatherlink.com 1.10,2013-09-06 06:59:00,
2013-09-06 02:14:00,66.6,65.0,30.13,ENE,72,0.0,1.0,93,0.00,,,0.00,weatherlink.com 1.10,2013-09-06 07:14:00,
2013-09-06 02:29:00,66.5,65.0,30.13,ENE,72,2.0,3.0,93,0.00,,,0.00,weatherlink.com 1.10,2013-09-06 07:29:00,
2013-09-06 02:44:00,66.3,64.0,30.12,ENE,74,1.0,2.0,93,0.00,,,0.00,weatherlink.com 1.10,2013-09-06 07:44:00,
2013-09-06 02:59:00,66.3,64.0,30.12,ENE,73,2.0,2.0,93,0.00,,,0.00,weatherlink.com 1.10,2013-09-06 07:59:00,
2013-09-06 03:14:00,66.1,64.0,30.12,ENE,77,3.0,3.0,94,0.00,,,0.00,weatherlink.com 1.10,2013-09-06 08:14:00,
2013-09-06 03:29:00,65.8,64.0,30.13,ENE,72,2.0,2.0,94,0.00,,,0.00,weatherlink.com 1.10,2013-09-06 08:29:00,
2013-09-06 03:44:00,65.5,64.0,30.12,ENE,72,1.0,2.0,94,0.00,,,0.00,weatherlink.com 1.10,2013-09-06 08:44:00,
2013-09-06 03:59:00,65.5,64.0,30.12,ENE,72,1.0,2.0,95,0.00,,,0.00,weatherlink.com 1.10,2013-09-06 08:59:00,
2013-09-06 04:14:00,65.0,64.0,30.12,ENE,72,1.0,2.0,95,0.00,,,0.00,weatherlink.com 1.10,2013-09-06 09:14:00,
2013-09-06 04:29:00,64.9,64.0,30.12,ENE,74,1.0,2.0,96,0.00,,,0.00,weatherlink.com 1.10,2013-09-06 09:29:00,
2013-09-06 04:44:00,64.6,64.0,30.12,ENE,73,0.0,2.0,96,0.00,,,0.00,weatherlink.com 1.10,2013-09-06 09:44:00,
2013-09-06 04:59:00,64.4,63.0,30.12,ENE,74,1.0,1.0,96,0.00,,,0.00,weatherlink.com 1.10,2013-09-06 09:59:00,
2013-09-06 05:14:00,64.3,64.0,30.12,ENE,74,1.0,2.0,97,0.00,,,0.00,weatherlink.com 1.10,2013-09-06 10:14:00,
2013-09-06 05:29:00,64.1,63.0,30.12,ENE,74,0.0,1.0,97,0.00,,,0.00,weatherlink.com 1.10,2013-09-06 10:29:00,
2013-09-06 05:44:00,64.0,63.0,30.13,ENE,73,1.0,1.0,97,0.00,,,0.00,weatherlink.com 1.10,2013-09-06 10:44:00,
2013-09-06 05:59:00,63.7,63.0,30.13,ENE,73,1.0,2.0,97,0.00,,,0.00,weatherlink.com 1.10,2013-09-06 10:59:00,
2013-09-06 06:14:00,63.7,63.0,30.13,ENE,74,2.0,2.0,97,0.00,,,0.00,weatherlink.com 1.10,2013-09-06 11:14:00,
2013-09-06 06:29:00,63.5,63.0,30.13,ENE,75,2.0,2.0,97,0.00,,,0.00,weatherlink.com 1.10,2013-09-06 11:29:00,
2013-09-06 06:44:00,63.2,62.0,30.13,ENE,65,2.0,2.0,97,0.00,,,0.00,weatherlink.com 1.10,2013-09-06 11:44:00,
2013-09-06 06:59:00,63.3,63.0,30.14,ENE,68,1.0,2.0,97,0.00,,,0.00,weatherlink.com 1.10,2013-09-06 11:59:00,
2013-09-06 07:14:00,63.8,63.0,30.14,ENE,68,1.0,2.0,97,0.00,,,0.00,weatherlink.com 1.10,2013-09-06 12:14:00,
2013-09-06 07:29:00,64.7,64.0,30.14,ENE,68,1.0,1.0,97,0.00,,,0.00,weatherlink.com 1.10,2013-09-06 12:29:00,
2013-09-06 07:44:00,65.8,65.0,30.14,ENE,68,0.0,2.0,96,0.00,,,0.00,weatherlink.com 1.10,2013-09-06 12:44:00,
2013-09-06 07:59:00,66.7,65.0,30.14,ENE,64,2.0,2.0,95,0.00,,,0.00,weatherlink.com 1.10,2013-09-06 12:59:00,
2013-09-06 08:14:00,67.7,66.0,30.14,ENE,75,2.0,2.0,93,0.00,,,0.00,weatherlink.com 1.10,2013-09-06 13:14:00,
2013-09-06 08:29:00,68.6,66.0,30.14,East,81,1.0,3.0,90,0.00,,,0.00,weatherlink.com 1.10,2013-09-06 13:29:00,
2013-09-06 08:44:00,70.0,66.0,30.14,ENE,70,0.0,3.0,88,0.00,,,0.00,weatherlink.com 1.10,2013-09-06 13:44:00,
2013-09-06 08:59:00,71.7,67.0,30.14,SSW,212,0.0,1.0,84,0.00,,,0.00,weatherlink.com 1.10,2013-09-06 13:59:00,
2013-09-06 09:14:00,72.7,66.0,30.14,SSW,208,1.0,3.0,80,0.00,,,0.00,weatherlink.com 1.10,2013-09-06 14:14:00,
2013-09-06 09:29:00,74.8,67.0,30.15,SE,130,1.0,3.0,76,0.00,,,0.00,weatherlink.com 1.10,2013-09-06 14:29:00,
2013-09-06 09:44:00,76.2,67.0,30.15,SW,214,1.0,2.0,74,0.00,,,0.00,weatherlink.com 1.10,2013-09-06 14:44:00,
2013-09-06 09:59:00,76.3,67.0,30.15,SW,219,3.0,5.0,74,0.00,,,0.00,weatherlink.com 1.10,2013-09-06 14:59:00,
2013-09-06 10:14:00,77.0,68.0,30.15,SSW,207,2.0,6.0,74,0.00,,,0.00,weatherlink.com 1.10,2013-09-06 15:14:00,
2013-09-06 10:29:00,77.3,67.0,30.14,South,184,2.0,7.0,71,0.00,,,0.00,weatherlink.com 1.10,2013-09-06 15:29:00,
2013-09-06 10:44:00,78.4,67.0,30.14,SW,221,2.0,6.0,68,0.00,,,0.00,weatherlink.com 1.10,2013-09-06 15:44:00,
2013-09-06 11:00:00,79.0,67.0,30.14,SW,214,6.0,8.0,67,0.00,,,0.00,weatherlink.com 1.10,2013-09-06 16:00:00,
2013-09-06 11:15:00,80.3,68.0,30.13,West,263,3.0,8.0,66,0.00,,,0.00,weatherlink.com 1.10,2013-09-06 16:15:00,
2013-09-06 11:30:00,81.2,67.0,30.13,WSW,238,9.0,10.0,63,0.00,,,0.00,weatherlink.com 1.10,2013-09-06 16:30:00,
2013-09-06 11:45:00,81.6,66.0,30.13,SW,219,5.0,10.0,60,0.00,,,0.00,weatherlink.com 1.10,2013-09-06 16:45:00,
2013-09-06 12:00:00,81.7,66.0,30.12,SSE,156,3.0,9.0,60,0.00,,,0.00,weatherlink.com 1.10,2013-09-06 17:00:00,
2013-09-06 12:15:00,82.5,66.0,30.11,SW,233,8.0,10.0,58,0.00,,,0.00,weatherlink.com 1.10,2013-09-06 17:15:00,
2013-09-06 12:30:00,83.3,66.0,30.11,WSW,243,7.0,10.0,56,0.00,,,0.00,weatherlink.com 1.10,2013-09-06 17:30:00,
2013-09-06 12:45:00,84.1,66.0,30.10,East,95,2.0,9.0,55,0.00,,,0.00,weatherlink.com 1.10,2013-09-06 17:45:00,
2013-09-06 13:00:00,85.9,66.0,30.09,SW,218,1.0,7.0,52,0.00,,,0.00,weatherlink.com 1.10,2013-09-06 18:00:00,
2013-09-06 13:15:00,85.6,66.0,30.09,ESE,121,1.0,9.0,53,0.00,,,0.00,weatherlink.com 1.10,2013-09-06 18:15:00,
2013-09-06 13:30:00,85.0,66.0,30.08,SW,226,7.0,11.0,54,0.00,,,0.00,weatherlink.com 1.10,2013-09-06 18:30:00,
2013-09-06 13:45:00,85.0,66.0,30.07,WSW,248,7.0,10.0,53,0.00,,,0.00,weatherlink.com 1.10,2013-09-06 18:45:00,
2013-09-06 14:00:00,86.1,67.0,30.07,SW,236,5.0,7.0,53,0.00,,,0.00,weatherlink.com 1.10,2013-09-06 19:00:00,
2013-09-06 14:15:00,86.8,67.0,30.07,SE,124,4.0,7.0,52,0.00,,,0.00,weatherlink.com 1.10,2013-09-06 19:15:00,
2013-09-06 14:30:00,86.1,66.0,30.06,South,183,3.0,10.0,52,0.00,,,0.00,weatherlink.com 1.10,2013-09-06 19:30:00,
2013-09-06 14:45:00,86.6,66.0,30.06,SSE,165,4.0,10.0,51,0.00,,,0.00,weatherlink.com 1.10,2013-09-06 19:45:00,
2013-09-06 15:00:00,86.1,65.0,30.05,SSE,166,2.0,8.0,50,0.00,,,0.00,weatherlink.com 1.10,2013-09-06 20:00:00,
2013-09-06 15:15:00,86.7,65.0,30.04,West,259,5.0,12.0,49,0.00,,,0.00,weatherlink.com 1.10,2013-09-06 20:15:00,
2013-09-06 15:30:00,85.9,65.0,30.03,SW,228,2.0,9.0,49,0.00,,,0.00,weatherlink.com 1.10,2013-09-06 20:30:00,
2013-09-06 15:45:00,86.6,63.0,30.03,West,272,3.0,9.0,45,0.00,,,0.00,weatherlink.com 1.10,2013-09-06 20:45:00,
2013-09-06 16:00:00,86.6,63.0,30.03,SSW,204,4.0,9.0,45,0.00,,,0.00,weatherlink.com 1.10,2013-09-06 21:00:00,
2013-09-06 16:15:00,86.7,62.0,30.03,SSW,193,5.0,9.0,43,0.00,,,0.00,weatherlink.com 1.10,2013-09-06 21:15:00,
2013-09-06 16:30:00,86.8,62.0,30.02,WSW,249,5.0,10.0,44,0.00,,,0.00,weatherlink.com 1.10,2013-09-06 21:30:00,
2013-09-06 16:45:00,86.7,63.0,30.02,SSW,208,5.0,8.0,45,0.00,,,0.00,weatherlink.com 1.10,2013-09-06 21:45:00,
2013-09-06 17:00:00,86.9,64.0,30.02,SSW,211,2.0,6.0,46,0.00,,,0.00,weatherlink.com 1.10,2013-09-06 22:00:00,
2013-09-06 17:15:00,86.1,65.0,30.01,WSW,248,2.0,5.0,49,0.00,,,0.00,weatherlink.com 1.10,2013-09-06 22:15:00,
2013-09-06 17:30:00,85.2,63.0,30.00,SW,228,6.0,7.0,48,0.00,,,0.00,weatherlink.com 1.10,2013-09-06 22:30:00,
2013-09-06 17:45:00,84.3,65.0,30.00,South,186,3.0,7.0,52,0.00,,,0.00,weatherlink.com 1.10,2013-09-06 22:45:00,
2013-09-06 18:00:00,83.9,65.0,30.00,WSW,246,1.0,5.0,54,0.00,,,0.00,weatherlink.com 1.10,2013-09-06 23:00:00,
2013-09-06 18:16:00,83.1,66.0,30.00,SW,233,0.0,3.0,57,0.00,,,0.00,weatherlink.com 1.10,2013-09-06 23:16:00,
2013-09-06 18:31:00,82.2,67.0,30.00,SSW,210,0.0,1.0,60,0.00,,,0.00,weatherlink.com 1.10,2013-09-06 23:31:00,
2013-09-06 18:45:00,81.2,66.0,30.00,SSW,210,0.0,0.0,61,0.00,,,0.00,weatherlink.com 1.10,2013-09-06 23:45:00,
2013-09-06 19:01:00,80.2,67.0,30.00,SSW,210,0.0,0.0,65,0.00,,,0.00,weatherlink.com 1.10,2013-09-07 00:01:00,
2013-09-06 19:16:00,78.8,67.0,30.00,SSW,208,0.0,1.0,67,0.00,,,0.00,weatherlink.com 1.10,2013-09-07 00:16:00,
2013-09-06 19:31:00,76.9,67.0,29.99,SSW,208,0.0,0.0,72,0.00,,,0.00,weatherlink.com 1.10,2013-09-07 00:31:00,
2013-09-06 19:46:00,76.0,67.0,29.99,SSW,208,0.0,1.0,73,0.00,,,0.00,weatherlink.com 1.10,2013-09-07 00:46:00,
2013-09-06 20:01:00,75.0,66.0,29.99,SSW,208,0.0,1.0,74,0.00,,,0.00,weatherlink.com 1.10,2013-09-07 01:01:00,
2013-09-06 20:16:00,74.6,66.0,30.00,SSW,208,0.0,0.0,75,0.00,,,0.00,weatherlink.com 1.10,2013-09-07 01:16:00,
2013-09-06 20:31:00,73.9,66.0,30.00,SSW,208,0.0,0.0,76,0.00,,,0.00,weatherlink.com 1.10,2013-09-07 01:31:00,
2013-09-06 20:46:00,73.4,66.0,30.00,South,191,0.0,1.0,77,0.00,,,0.00,weatherlink.com 1.10,2013-09-07 01:46:00,
2013-09-06 21:01:00,72.9,66.0,30.00,SSW,192,0.0,1.0,78,0.00,,,0.00,weatherlink.com 1.10,2013-09-07 02:01:00,
2013-09-06 21:16:00,72.4,66.0,30.00,SSW,192,0.0,1.0,79,0.00,,,0.00,weatherlink.com 1.10,2013-09-07 02:16:00,
2013-09-06 21:31:00,71.7,65.0,30.00,South,191,0.0,0.0,80,0.00,,,0.00,weatherlink.com 1.10,2013-09-07 02:31:00,
2013-09-06 21:46:00,71.0,65.0,30.00,South,191,0.0,0.0,81,0.00,,,0.00,weatherlink.com 1.10,2013-09-07 02:46:00,
2013-09-06 22:01:00,70.3,65.0,30.00,South,191,0.0,1.0,83,0.00,,,0.00,weatherlink.com 1.10,2013-09-07 03:01:00,
2013-09-06 22:16:00,70.8,65.0,30.00,ESE,122,0.0,3.0,81,0.00,,,0.00,weatherlink.com 1.10,2013-09-07 03:16:00,
2013-09-06 22:31:00,71.0,65.0,29.99,SSW,204,0.0,2.0,80,0.00,,,0.00,weatherlink.com 1.10,2013-09-07 03:31:00,
2013-09-06 22:46:00,70.7,65.0,29.99,SSW,211,0.0,1.0,81,0.00,,,0.00,weatherlink.com 1.10,2013-09-07 03:46:00,
2013-09-06 23:01:00,70.3,65.0,30.00,South,184,0.0,1.0,82,0.00,,,0.00,weatherlink.com 1.10,2013-09-07 04:01:00,
2013-09-06 23:16:00,69.9,65.0,30.00,South,179,0.0,1.0,83,0.00,,,0.00,weatherlink.com 1.10,2013-09-07 04:16:00,
2013-09-06 23:31:00,69.9,64.0,29.99,SSW,205,1.0,3.0,82,0.00,,,0.00,weatherlink.com 1.10,2013-09-07 04:31:00,
2013-09-06 23:46:00,69.7,64.0,29.99,SW,236,2.0,2.0,83,0.00,,,0.00,weatherlink.com 1.10,2013-09-07 04:46:00,